Location: Wildlife_Club
(35.6000°N, 81.4330°W)
Time: 07:39:32
(UTC-04:00)

Amateur Radio Satellites - All Passes

Search period start: 18 April 2015 07:09
Search period end: 19 April 2015 07:09
Location: Wildlife_Club, 35.6000°N, 81.4330°W

Satellite Date Start Highest point End Downlink Frequencies (MHz)
Time Altitude Azimuth
Cubesat XI-IV 18 Apr 07:10:46 07:15:36 36° 97° (E) 07:20:29 437.490
STRAND 1 18 Apr 07:23:02 07:28:03 59° 74° (ENE) 07:33:06 437.568
CUBESAT XI-V 18 Apr 07:28:11 07:32:46 58° 260° (W) 07:37:22 437.345
AO-7 18 Apr 07:28:45 07:34:57 23° 301° (WNW) 07:40:50 29.400- 29.500
GONETS M04 18 Apr 07:37:00 07:42:03 16° 279° (W) 07:46:28
AIST 2 18 Apr 07:43:09 07:45:47 15° 313° (NW) 07:48:18 435.215
DANDE 18 Apr 07:43:20 07:48:55 25° 268° (W) 07:54:58 436.750
M-CUBED/EXP-1 PRIME 18 Apr 07:47:48 07:50:19 14° 266° (W) 07:52:38 437.505
CUSAT 1 18 Apr 08:01:32 08:05:22 14° 272° (W) 08:08:51 437.405
Cosmos 2499 18 Apr 08:28:10 08:35:30 41° 272° (W) 08:42:14 435.465 / 435.565
PRISM 18 Apr 08:29:23 08:32:00 16° 267° (W) 08:34:27 437.425
SRMSAT 18 Apr 08:31:58 08:35:36 17° 178° (S) 08:39:16 437.500
BRITE-PL 18 Apr 08:32:28 08:35:07 15° 92° (E) 08:38:08 437.365/2234.400
JUGNU 18 Apr 08:39:17 08:42:22 14° 188° (S) 08:45:24 437.505
CUTE-I 18 Apr 08:44:01 08:48:35 29° 291° (WNW) 08:53:03 437.470
HO-68 18 Apr 08:44:57 08:48:27 15° 89° (E) 08:52:26 435.675
Cubesat XI-IV 18 Apr 08:51:14 08:55:33 25° 292° (WNW) 08:59:45 437.490
GOMX 1 18 Apr 09:02:45 09:06:22 21° 93° (E) 09:10:19 467.674
STRAND 1 18 Apr 09:05:07 09:07:44 13° 270° (W) 09:10:02 437.568
COMPASS 1 18 Apr 09:19:12 09:20:28 11° 90° (E) 09:22:01 437.405
CANX-2 18 Apr 09:23:36 09:27:01 23° 94° (E) 09:30:30 2200.000
SEEDS 18 Apr 09:29:47 09:32:53 20° 93° (E) 09:36:06 437.485
CUTE 1.7 + AOD 2 18 Apr 09:33:52 09:37:32 28° 95° (E) 09:41:15 437.475
PCSat 18 Apr 09:52:44 09:57:11 27° 108° (ESE) 10:01:46 145.827
AAUSAT CUBESAT 2 18 Apr 10:06:46 10:10:41 38° 98° (E) 10:14:36 437.432
BRITE-PL 18 Apr 10:09:09 10:13:53 53° 285° (WNW) 10:18:58 437.365/2234.400
Oscar 11 18 Apr 10:10:24 10:13:26 19° 93° (E) 10:16:35 145.826/435.025
ANTELSAT 18 Apr 10:16:09 10:18:53 17° 68° (ENE) 10:21:49 437.575/2403.000
DOVE 4 18 Apr 10:19:06 10:24:04 86° 100° (E) 10:29:18 437.250
SRMSAT 18 Apr 10:20:50 10:24:03 15° 188° (S) 10:27:14 437.500
CINEMA 3 18 Apr 10:28:31 10:33:20 55° 99° (E) 10:38:15 145.822/145.860
HO-68 18 Apr 10:29:52 10:37:06 83° 286° (WNW) 10:44:16 435.675
QB50P1 18 Apr 10:32:06 10:32:50 11° 67° (ENE) 10:33:51 145.935-145.965
UWE-3 18 Apr 10:32:31 10:36:17 25° 94° (E) 10:40:10 435.000/436.395/437.385
DELFI C3 18 Apr 10:36:48 10:40:15 27° 96° (E) 10:43:45 145.870
GOMX 1 18 Apr 10:40:00 10:44:36 40° 286° (WNW) 10:49:26 467.674
O/OREOS (USA 219) 18 Apr 10:49:24 10:53:55 88° 69° (ENE) 10:58:23 437.305
BUGSAT 1 18 Apr 10:52:10 10:53:36 12° 68° (ENE) 10:55:14 437.445
COMPASS 1 18 Apr 10:52:26 10:56:31 47° 285° (WNW) 11:00:32 437.405
QB50P2 18 Apr 10:52:42 10:55:40 20° 70° (ENE) 10:58:47 145.880/145.840
HUMSAT D 18 Apr 10:54:50 10:57:15 15° 91° (E) 10:59:51 437.325/437.525
CANX-2 18 Apr 10:59:22 11:02:55 25° 289° (WNW) 11:06:21 2200.000
FUNcube-1 18 Apr 11:04:15 11:08:37 43° 98° (E) 11:13:00 145.935
SEEDS 18 Apr 11:05:04 11:08:44 28° 288° (WNW) 11:12:19 437.485
VELOX 1 18 Apr 11:05:24 11:06:01 10° 90° (E) 11:06:57 145.980
TIGRISAT 18 Apr 11:08:51 11:13:11 63° 75° (ENE) 11:17:39 435.000
UNISAT 6 18 Apr 11:09:13 11:13:35 66° 76° (ENE) 11:18:05 437.425
CUTE 1.7 + AOD 2 18 Apr 11:10:03 11:13:20 21° 290° (WNW) 11:16:30 437.475
Cosmos 2491 18 Apr 11:11:57 11:20:32 54° 78° (ENE) 11:29:08 435.465 / 435.565
POPSAT HIP 1 18 Apr 11:15:14 11:19:00 34° 73° (ENE) 11:22:51 437.405
NANOSAT C BR1 18 Apr 11:15:53 11:19:41 35° 73° (ENE) 11:23:33 145.865
AISAT 18 Apr 11:17:57 11:20:40 16° 92° (E) 11:23:34 437.250
UKube-1 18 Apr 11:23:45 11:27:49 40° 99° (E) 11:31:54 .
CUBEBUG 2 18 Apr 11:24:15 11:28:59 71° 284° (WNW) 11:33:44 437.445
ZACube-1 18 Apr 11:26:00 11:30:36 79° 102° (ESE) 11:35:12 437.345
ESTCUBE 1 18 Apr 11:29:31 11:30:09 10° 89° (E) 11:31:06 437.505/2401.250
PCSat 18 Apr 11:35:31 11:40:28 35° 304° (NW) 11:45:26 145.827
CUBEBUG 1 18 Apr 11:35:31 11:36:01 10° 90° (E) 11:36:51 437.445
POLYITAN 1 18 Apr 11:40:33 11:44:44 74° 77° (ENE) 11:48:58 437.675
AAUSAT CUBESAT 2 18 Apr 11:43:31 11:46:01 15° 291° (WNW) 11:48:22 437.432
Oscar 11 18 Apr 11:45:49 11:49:42 31° 288° (WNW) 11:53:30 145.826/435.025
ANTELSAT 18 Apr 11:51:13 11:55:22 39° 262° (W) 11:59:37 437.575/2403.000
DUCHIFAT 1 18 Apr 11:52:03 11:56:14 83° 255° (WSW) 12:00:27 145.980
50 SAT 18 Apr 11:58:00 12:01:58 51° 99° (E) 12:05:55 437.505
QB50P1 18 Apr 12:04:09 12:08:17 57° 260° (W) 12:12:25 145.935-145.965
DX 1 18 Apr 12:04:39 12:08:57 60° 285° (WNW) 12:13:13 434.975-435.025
CINEMA 3 18 Apr 12:07:16 12:10:09 15° 292° (WNW) 12:12:50 145.822/145.860
UWE-3 18 Apr 12:08:45 12:12:48 28° 289° (WNW) 12:16:46 435.000/436.395/437.385
DELFI C3 18 Apr 12:12:20 12:15:16 19° 290° (WNW) 12:18:04 145.870
YUBILEINY 18 Apr 12:16:28 12:25:10 68° 93° (E) 12:33:56 435.215
HO-68 18 Apr 12:20:15 12:23:55 14° 302° (WNW) 12:27:09 435.675
BUGSAT 1 18 Apr 12:24:52 12:28:45 45° 261° (W) 12:32:37 437.445
QB50P2 18 Apr 12:27:43 12:31:25 29° 264° (W) 12:35:05 145.880/145.840
HUMSAT D 18 Apr 12:29:09 12:33:14 39° 286° (WNW) 12:37:15 437.325/437.525
VELOX 1 18 Apr 12:38:40 12:43:02 58° 285° (WNW) 12:47:22 145.980
FUNcube-1 18 Apr 12:41:42 12:44:38 16° 292° (WNW) 12:47:24 145.935
POPSAT HIP 1 18 Apr 12:52:23 12:55:04 16° 268° (W) 12:57:33 437.405
NANOSAT C BR1 18 Apr 12:53:05 12:55:42 16° 268° (W) 12:58:10 145.865
AISAT 18 Apr 12:53:19 12:57:26 38° 287° (WNW) 13:01:33 437.250
SO-50 18 Apr 12:54:57 12:56:39 12° 108° (ESE) 12:58:39 436.795
Oscar 19 18 Apr 12:59:54 13:03:04 17° 66° (ENE) 13:06:26 437.125/150
UKube-1 18 Apr 13:01:01 13:03:40 16° 292° (WNW) 13:06:09 .
ESTCUBE 1 18 Apr 13:03:04 13:07:29 59° 285° (WNW) 13:11:52 437.505/2401.250
AIST 1 18 Apr 13:05:19 13:09:04 30° 77° (ENE) 13:12:51
CUBEBUG 1 18 Apr 13:08:33 13:12:49 56° 285° (WNW) 13:17:03 437.445
Cosmos 2491 18 Apr 13:09:40 13:16:59 29° 274° (W) 13:24:01 435.465 / 435.565
SPROUT 18 Apr 13:25:29 13:29:43 54° 100° (E) 13:33:58 437.525
TISAT 1 18 Apr 13:26:42 13:30:44 43° 99° (E) 13:34:47 437.305
50 SAT 18 Apr 13:35:13 13:36:24 11° 293° (WNW) 13:37:20 437.505
YUBILEINY 18 Apr 14:16:02 14:22:52 23° 293° (WNW) 14:29:20 435.215
BEESAT 2 18 Apr 14:17:32 14:21:18 34° 55° (NE) 14:25:02 435.950
Cosmos 2504 18 Apr 14:20:49 14:28:42 41° 88° (E) 14:36:53 435.465 / 435.565
RS-15 18 Apr 14:23:09 14:28:29 16° 102° (ESE) 14:34:45 29.354- 29.394
ITUPSAT 1 18 Apr 14:25:55 14:29:58 28° 96° (E) 14:34:04 437.325
BEESAT 3 18 Apr 14:26:36 14:30:36 51° 58° (ENE) 14:34:32 437.485
AIST 2 18 Apr 14:28:21 14:30:55 16° 47° (NE) 14:33:36 435.215
SO-50 18 Apr 14:32:07 14:36:41 61° 302° (WNW) 14:41:26 436.795
Gurwin Techsat 1B 18 Apr 14:35:21 14:40:11 38° 71° (ENE) 14:45:05 435.225
Oscar 19 18 Apr 14:37:04 14:42:03 51° 260° (W) 14:47:04 437.125/150
AO-7 18 Apr 14:42:28 14:46:30 15° 54° (NE) 14:51:00 29.400- 29.500
AIST 1 18 Apr 14:43:41 14:46:32 17° 271° (W) 14:49:11
ISS 18 Apr 14:52:07 14:55:14 45° 134° (SE) 14:58:23 145.825
ITAMSAT 1 18 Apr 14:53:15 14:58:24 69° 75° (ENE) 15:03:34 435.822/435.867
BEESAT 18 Apr 15:01:36 15:06:22 72° 102° (ESE) 15:11:06 436.000
SWISSCUBE 18 Apr 15:02:40 15:07:27 81° 102° (ESE) 15:12:12 437.505
SPROUT 18 Apr 15:03:45 15:05:24 12° 293° (WNW) 15:06:48 437.525
TISAT 1 18 Apr 15:03:54 15:06:12 14° 292° (WNW) 15:08:19 437.305
HORYU 2 18 Apr 15:12:19 15:14:50 15° 67° (ENE) 15:17:33 437.375
KKS-1 18 Apr 15:32:55 15:36:38 26° 96° (E) 15:40:24 437.445
BEESAT 2 18 Apr 15:56:22 15:59:12 18° 249° (WSW) 16:01:51 435.950
ITUPSAT 1 18 Apr 16:03:50 16:07:48 26° 290° (WNW) 16:11:39 437.325
JAS-2 18 Apr 16:04:58 16:12:10 46° 70° (ENE) 16:19:34 435.910
AIST 2 18 Apr 16:05:45 16:09:49 46° 245° (WSW) 16:13:47 435.215
BEESAT 3 18 Apr 16:06:55 16:08:12 11° 251° (WSW) 16:09:15 437.485
Cosmos 2504 18 Apr 16:13:58 16:22:09 41° 286° (WNW) 16:30:19 435.465 / 435.565
Gurwin Techsat 1B 18 Apr 16:16:05 16:20:18 23° 266° (W) 16:24:24 435.225
RS-15 18 Apr 16:28:36 16:39:28 84° 118° (ESE) 16:50:34 29.354- 29.394
ISS 18 Apr 16:29:24 16:31:47 18° 330° (NNW) 16:34:09 145.825
AO-7 18 Apr 16:29:55 16:38:09 77° 72° (ENE) 16:46:28 29.400- 29.500
ITAMSAT 1 18 Apr 16:36:29 16:38:29 12° 271° (W) 16:40:06 435.822/435.867
GONETS M04 18 Apr 16:41:19 16:46:48 20° 82° (E) 16:52:48
BEESAT 18 Apr 16:42:21 16:43:41 11° 295° (WNW) 16:44:43 436.000
STARS 18 Apr 16:46:42 16:51:09 71° 284° (WNW) 16:55:34 437.465
HORYU 2 18 Apr 16:46:54 16:51:09 43° 261° (W) 16:55:27 437.375
KKS-1 18 Apr 17:09:30 17:13:12 25° 290° (WNW) 17:16:48 437.445
JAS-2 18 Apr 17:50:18 17:57:16 35° 266° (W) 18:04:15 435.910
MOZHAYETS 4 18 Apr 18:13:54 18:18:31 83° 283° (WNW) 18:23:05
CUTE-I 18 Apr 18:22:53 18:27:45 38° 71° (ENE) 18:32:40 437.470
AO-7 18 Apr 18:26:06 18:31:51 19° 269° (W) 18:37:08 29.400- 29.500
Cubesat XI-IV 18 Apr 18:29:50 18:34:52 45° 72° (ENE) 18:39:57 437.490
GONETS M04 18 Apr 18:34:06 18:42:49 75° 278° (W) 18:51:39
RS-15 18 Apr 18:44:18 18:53:25 28° 323° (NW) 19:02:26 29.354- 29.394
PCSat 18 Apr 18:44:19 18:46:59 14° 46° (NE) 18:49:52 145.827
AUBIESAT-1 18 Apr 18:46:52 18:49:39 17° 96° (E) 18:52:25 437.475
VERMONT LUNAR 18 Apr 18:57:18 18:58:27 11° 143° (SE) 18:59:43 437.305
Cosmos 2499 18 Apr 19:06:53 19:14:14 32° 87° (E) 19:21:51 435.465 / 435.565
DANDE 18 Apr 19:11:40 19:14:21 72° 97° (E) 19:17:35 436.750
CUSAT 1 18 Apr 19:24:14 19:27:00 40° 285° (WNW) 19:30:20 437.405
CUBESAT XI-V 18 Apr 19:27:57 19:32:19 43° 98° (E) 19:36:42 437.345
M-CUBED/EXP-1 PRIME 18 Apr 19:30:28 19:34:53 70° 105° (ESE) 19:38:55 437.505
STRAND 1 18 Apr 19:37:10 19:41:18 25° 95° (E) 19:45:31 437.568
PHONESAT 2.4 18 Apr 19:45:46 19:46:08 10° 142° (SE) 19:46:40 2401.200-2431.200
CUTE-I 18 Apr 20:03:42 20:07:58 23° 266° (W) 20:12:04 437.470
GOMX 1 18 Apr 20:10:29 20:12:07 12° 67° (ENE) 20:14:00 467.674
Cubesat XI-IV 18 Apr 20:11:20 20:15:14 20° 267° (W) 20:18:56 437.490
PRISM 18 Apr 20:12:56 20:17:03 89° 290° (WNW) 20:21:08 437.425
CANX-2 18 Apr 20:15:26 20:17:10 13° 68° (ENE) 20:19:08 2200.000
AUBIESAT-1 18 Apr 20:20:40 20:24:38 34° 293° (WNW) 20:28:17 437.475
SEEDS 18 Apr 20:21:30 20:22:17 11° 67° (ENE) 20:23:20 437.485
CUTE 1.7 + AOD 2 18 Apr 20:25:12 20:27:31 15° 69° (ENE) 20:30:01 437.475
PCSat 18 Apr 20:25:43 20:31:11 84° 243° (WSW) 20:36:35 145.827
VERMONT LUNAR 18 Apr 20:32:16 20:35:37 67° 155° (SSE) 20:39:00 437.305
GONETS M04 18 Apr 20:37:59 20:41:35 12° 301° (WNW) 20:44:27
HO-68 18 Apr 20:54:46 21:01:42 55° 70° (ENE) 21:08:43 435.675
AAUSAT CUBESAT 2 18 Apr 20:55:37 20:58:30 19° 70° (ENE) 21:01:32 437.432
Cosmos 2499 18 Apr 20:58:32 21:07:06 51° 283° (WNW) 21:15:37 435.465 / 435.565
Oscar 11 18 Apr 21:04:32 21:05:33 11° 67° (ENE) 21:06:50 145.826/435.025
CUBESAT XI-V 18 Apr 21:06:34 21:09:28 16° 292° (WNW) 21:12:11 437.345
RS-15 18 Apr 21:07:01 21:11:25 13° 357° (N) 21:15:49 29.354- 29.394
M-CUBED/EXP-1 PRIME 18 Apr 21:08:16 21:09:06 10° 301° (WNW) 21:09:42 437.505
STRAND 1 18 Apr 21:16:01 21:20:32 32° 290° (WNW) 21:24:59 437.568
BRITE-PL 18 Apr 21:17:58 21:22:05 58° 260° (W) 21:26:11 437.365/2234.400
PHONESAT 2.4 18 Apr 21:20:28 21:23:59 57° 154° (SSE) 21:27:31 2401.200-2431.200
ISS 18 Apr 21:22:21 21:24:41 18° 29° (NNE) 21:27:02 145.825
DOVE 4 18 Apr 21:22:32 21:26:35 58° 75° (ENE) 21:30:46 437.250
DELFI C3 18 Apr 21:23:20 21:25:00 13° 68° (ENE) 21:26:53 145.870
CINEMA 3 18 Apr 21:28:10 21:31:52 32° 72° (ENE) 21:35:44 145.822/145.860
UWE-3 18 Apr 21:28:33 21:30:33 13° 67° (ENE) 21:32:48 435.000/436.395/437.385
COMPASS 1 18 Apr 21:40:19 21:44:32 76° 77° (ENE) 21:48:48 437.405
GOMX 1 18 Apr 21:45:59 21:49:56 43° 262° (W) 21:53:57 467.674
CANX-2 18 Apr 21:48:34 21:52:43 49° 261° (W) 21:56:55 2200.000
SEEDS 18 Apr 21:53:26 21:57:39 59° 261° (W) 22:01:52 437.485
FUNcube-1 18 Apr 21:57:56 22:01:12 23° 70° (ENE) 22:04:39 145.935
CUTE 1.7 + AOD 2 18 Apr 21:59:04 22:03:07 41° 262° (W) 22:07:12 437.475
VERMONT LUNAR 18 Apr 22:10:05 22:13:18 39° 351° (N) 22:16:30 437.305
AISAT 18 Apr 22:15:08 22:16:06 11° 66° (ENE) 22:17:20 437.250
UKube-1 18 Apr 22:16:18 22:19:43 24° 70° (ENE) 22:23:14 .
ZACube-1 18 Apr 22:19:17 22:23:15 41° 73° (ENE) 22:27:21 437.345
CUBEBUG 2 18 Apr 22:19:40 22:23:51 67° 76° (ENE) 22:28:11 437.445
AAUSAT CUBESAT 2 18 Apr 22:30:11 22:33:57 30° 264° (W) 22:37:41 437.432
YUBILEINY 18 Apr 22:31:14 22:38:23 28° 70° (ENE) 22:45:46 435.215
Oscar 11 18 Apr 22:36:59 22:41:16 59° 259° (W) 22:45:36 145.826/435.025
50 SAT 18 Apr 22:41:30 22:44:23 20° 71° (ENE) 22:47:24 437.505
HO-68 18 Apr 22:44:04 22:49:50 25° 267° (W) 22:55:22 435.675
DELFI C3 18 Apr 22:55:54 22:59:49 44° 261° (W) 23:03:45 145.870
DX 1 18 Apr 22:57:05 23:01:25 79° 75° (ENE) 23:05:45 434.975-435.025
ISS 18 Apr 22:58:06 23:01:14 45° 226° (SW) 23:04:20 145.825
PHONESAT 2.4 18 Apr 22:58:54 23:02:21 43° 349° (N) 23:05:47 2401.200-2431.200
UWE-3 18 Apr 23:02:39 23:06:43 45° 262° (W) 23:10:54 435.000/436.395/437.385
TIGRISAT 18 Apr 23:04:36 23:07:42 18° 92° (E) 23:10:58 435.000
UNISAT 6 18 Apr 23:05:09 23:08:23 19° 92° (E) 23:11:46 437.425
SO-50 18 Apr 23:06:20 23:11:12 54° 57° (ENE) 23:16:00 436.795
CINEMA 3 18 Apr 23:06:21 23:09:14 17° 268° (W) 23:12:01 145.822/145.860
HUMSAT D 18 Apr 23:17:37 23:21:47 84° 257° (WSW) 23:26:02 437.325/437.525
O/OREOS (USA 219) 18 Apr 23:21:28 23:23:55 15° 101° (E) 23:26:35 437.305
RS-15 18 Apr 23:21:38 23:30:01 23° 32° (NNE) 23:39:04 29.354- 29.394
POLYITAN 1 18 Apr 23:30:21 23:32:50 15° 92° (E) 23:35:31 437.675
VELOX 1 18 Apr 23:33:08 23:37:32 86° 81° (E) 23:41:58 145.980
FUNcube-1 18 Apr 23:33:54 23:37:28 25° 265° (W) 23:41:02 145.935
DUCHIFAT 1 18 Apr 23:40:41 23:43:44 20° 94° (E) 23:46:55 145.980
ANTELSAT 18 Apr 23:45:49 23:50:27 53° 100° (E) 23:55:02 437.575/2403.000
AISAT 18 Apr 23:47:53 23:52:14 61° 259° (W) 23:56:36 437.250
VERMONT LUNAR 18 Apr 23:48:05 23:51:15 37° 8° (N) 23:54:26 437.305
UKube-1 18 Apr 23:52:12 23:55:48 25° 264° (W) 23:59:20 .
QB50P1 18 Apr 23:52:34 23:56:13 28° 96° (E) 23:59:57 145.935-145.965
ZACube-1 18 Apr 23:57:35 23:59:54 14° 270° (W) 00:02:01 437.345
ESTCUBE 1 18 Apr 23:59:27 00:03:59 87° 78° (ENE) 00:08:32 437.505/2401.250
CUBEBUG 1 19 Apr 00:01:30 00:05:51 81° 77° (ENE) 00:10:11 437.445
Cosmos 2491 19 Apr 00:08:56 00:17:31 69° 93° (E) 00:26:12 435.465 / 435.565
BUGSAT 1 19 Apr 00:10:04 00:13:40 29° 97° (E) 00:17:21 437.445
QB50P2 19 Apr 00:15:22 00:19:35 54° 100° (E) 00:23:47 145.880/145.840
50 SAT 19 Apr 00:15:48 00:19:06 25° 265° (W) 00:22:23 437.505
TISAT 1 19 Apr 00:16:46 00:19:58 22° 70° (ENE) 00:23:16 437.305
SPROUT 19 Apr 00:17:10 00:20:48 28° 72° (ENE) 00:24:30 437.525
YUBILEINY 19 Apr 00:27:14 00:35:44 55° 269° (W) 00:44:05 435.215
PHONESAT 2.4 19 Apr 00:37:40 00:41:02 38° 6° (N) 00:44:24 2401.200-2431.200
POPSAT HIP 1 19 Apr 00:38:36 00:42:54 80° 282° (WNW) 00:47:11 437.405
NANOSAT C BR1 19 Apr 00:39:00 00:43:17 79° 283° (WNW) 00:47:33 145.865
TIGRISAT 19 Apr 00:40:13 00:44:38 39° 287° (WNW) 00:48:58 435.000
UNISAT 6 19 Apr 00:40:57 00:45:20 37° 287° (WNW) 00:49:37 437.425
SO-50 19 Apr 00:48:19 00:51:22 16° 251° (WSW) 00:54:10 436.795
O/OREOS (USA 219) 19 Apr 00:58:37 01:03:01 44° 294° (WNW) 01:07:24 437.305
POLYITAN 1 19 Apr 01:04:56 01:08:57 37° 287° (WNW) 01:12:55 437.675
DUCHIFAT 1 19 Apr 01:15:52 01:19:37 29° 288° (WNW) 01:23:17 145.980
ANTELSAT 19 Apr 01:24:13 01:26:49 14° 293° (WNW) 01:29:10 437.575/2403.000
VERMONT LUNAR 19 Apr 01:25:37 01:28:58 77° 205° (SSW) 01:32:18 437.305
QB50P1 19 Apr 01:28:42 01:31:58 21° 290° (WNW) 01:35:09 145.935-145.965
ITUPSAT 1 19 Apr 01:30:15 01:34:01 24° 69° (ENE) 01:37:55 437.325
AIST 1 19 Apr 01:32:14 01:35:29 21° 90° (E) 01:38:50
RS-15 19 Apr 01:33:17 01:44:54 75° 58° (ENE) 01:57:02 29.354- 29.394
BUGSAT 1 19 Apr 01:46:04 01:48:59 18° 290° (WNW) 01:51:48 437.445
TISAT 1 19 Apr 01:52:10 01:55:40 25° 265° (W) 01:59:05 437.305
QB50P2 19 Apr 01:53:30 01:55:04 12° 293° (WNW) 01:56:25 145.880/145.840
SPROUT 19 Apr 01:53:42 01:56:56 20° 266° (W) 02:00:02 437.525
BEESAT 19 Apr 02:05:04 02:09:45 58° 74° (ENE) 02:14:28 436.000
SWISSCUBE 19 Apr 02:06:11 02:10:56 66° 75° (ENE) 02:15:42 437.505
Cosmos 2491 19 Apr 02:08:35 02:15:16 23° 293° (WNW) 02:21:34 435.465 / 435.565
Cosmos 2504 19 Apr 02:10:17 02:18:29 68° 81° (E) 02:26:03 435.465 / 435.565
PHONESAT 2.4 19 Apr 02:15:57 02:19:31 86° 208° (SSW) 02:23:04 2401.200-2431.200
KKS-1 19 Apr 02:29:14 02:32:01 17° 68° (ENE) 02:34:58 437.445
Oscar 19 19 Apr 02:51:24 02:56:36 73° 101° (E) 03:01:48 437.125/150
Gurwin Techsat 1B 19 Apr 02:55:19 02:58:55 19° 92° (E) 03:02:43 435.225
VERMONT LUNAR 19 Apr 03:04:27 03:06:10 13° 217° (SW) 03:07:47 437.305
ITUPSAT 1 19 Apr 03:07:32 03:11:48 30° 264° (W) 03:16:01 437.325
AIST 1 19 Apr 03:09:24 03:13:03 25° 284° (WNW) 03:16:35
ITAMSAT 1 19 Apr 03:09:32 03:14:02 31° 96° (E) 03:18:37 435.822/435.867
STARS 19 Apr 03:40:34 03:44:53 69° 76° (ENE) 03:49:16 437.465
BEESAT 19 Apr 03:45:59 03:48:02 12° 270° (W) 03:49:48 436.000
RS-15 19 Apr 03:47:11 03:56:36 28° 255° (WSW) 04:05:43 29.354- 29.394
SWISSCUBE 19 Apr 03:48:05 03:49:19 11° 271° (W) 03:50:12 437.505
PHONESAT 2.4 19 Apr 03:55:08 03:57:29 16° 216° (SW) 03:59:45 2401.200-2431.200
KKS-1 19 Apr 04:04:16 04:08:24 37° 262° (W) 04:12:31 437.445
Cosmos 2504 19 Apr 04:05:29 04:11:04 20° 278° (W) 04:16:01 435.465 / 435.565
BEESAT 2 19 Apr 04:10:43 04:12:31 13° 110° (ESE) 04:14:34 435.950
BEESAT 3 19 Apr 04:17:55 04:20:49 20° 111° (ESE) 04:23:51 437.485
CUSAT 1 19 Apr 04:20:30 04:24:16 15° 67° (ENE) 04:28:49 437.405
Oscar 19 19 Apr 04:33:09 04:35:25 13° 296° (WNW) 04:37:24 437.125/150
Gurwin Techsat 1B 19 Apr 04:34:07 04:39:11 45° 288° (WNW) 04:44:11 435.225
AO-7 19 Apr 04:35:33 04:42:32 30° 96° (E) 04:49:44 29.400- 29.500
HORYU 2 19 Apr 04:41:02 04:45:20 43° 99° (E) 04:49:37 437.375
GONETS M04 19 Apr 04:48:14 04:56:42 49° 77° (ENE) 05:05:11
JUGNU 19 Apr 04:48:25 04:50:49 13° 169° (S) 04:53:16 437.505
ITAMSAT 1 19 Apr 04:49:06 04:53:28 28° 291° (WNW) 04:57:45 435.822/435.867
JAS-2 19 Apr 05:04:02 05:10:20 45° 96° (E) 05:15:56 435.910
MOZHAYETS 4 19 Apr 05:12:35 05:17:11 65° 76° (ENE) 05:21:49
AUBIESAT-1 19 Apr 05:31:33 05:34:40 18° 63° (ENE) 05:38:01 437.475
BEESAT 2 19 Apr 05:46:20 05:50:17 46° 303° (WNW) 05:54:18 435.950
DANDE 19 Apr 05:50:59 05:57:45 60° 79° (E) 06:05:58 436.750
BEESAT 3 19 Apr 05:55:00 05:58:40 31° 306° (NW) 06:02:21 437.485
AIST 2 19 Apr 06:00:27 06:04:41 75° 118° (ESE) 06:08:58 435.215
CUSAT 1 19 Apr 06:00:35 06:07:43 86° 82° (E) 06:16:02 437.405
M-CUBED/EXP-1 PRIME 19 Apr 06:15:06 06:19:39 59° 70° (ENE) 06:24:25 437.505
HORYU 2 19 Apr 06:18:54 06:21:40 16° 292° (WNW) 06:24:14 437.375
AO-7 19 Apr 06:27:39 06:35:40 53° 293° (WNW) 06:43:38 29.400- 29.500
CUBESAT XI-V 19 Apr 06:28:41 06:32:42 30° 72° (ENE) 06:36:47 437.345
SRMSAT 19 Apr 06:31:45 06:34:18 13° 169° (S) 06:36:55 437.500
JUGNU 19 Apr 06:35:31 06:39:05 17° 179° (S) 06:42:39 437.505
CUTE-I 19 Apr 06:43:46 06:47:22 19° 92° (E) 06:51:09 437.470
GONETS M04 19 Apr 06:45:38 06:53:16 32° 274° (W) 07:00:38
JAS-2 19 Apr 06:49:42 06:55:04 25° 296° (WNW) 06:59:47 435.910
STRAND 1 19 Apr 06:50:18 06:54:33 28° 70° (ENE) 06:58:53 437.568
Cubesat XI-IV 19 Apr 06:50:45 06:54:48 23° 94° (E) 06:58:59 437.490
MOZHAYETS 4 19 Apr 06:54:15 06:54:56 10° 272° (W) 06:55:17
Cosmos 2499 19 Apr 06:54:17 07:01:59 51° 77° (ENE) 07:09:09 435.465 / 435.565
PRISM 19 Apr 07:00:09 07:04:07 43° 74° (ENE) 07:08:07 437.425
